Flag for United Kingdom Weather past 2 weeks in Middlesbrough, England, United Kingdom

Now
48 °F

Partly sunny.


Feels Like: 42 °F
Forecast: 39 / 56 °F
Wind: 18 mph from Northeast

Location: Tees-Side

Current Time: Apr 19, 2015 at 1:46:21 PM

Latest Report: Apr 19, 2015 at 1:20 PM


Visibility: N/A

Pressure: 30.33 "Hg

Humidity: 71%

Dew point: 39 °F

Location of MiddlesbroughLocation

Historic Weather in Middlesbrough — Graph

°F

Middlesbrough temperature yesterday

Maximum temperature yesterday: 52 °F (at 12:20 PM)
Minimum temperature yesterday: 34 °F (at 5:50 AM)
Average temperature yesterday: 46 °F

Past Weeks' High & Low Weather Summary

 TemperatureHumidityPressure
High64 °F (Apr 9, 5:20 PM)94% (Apr 5, 9:20 AM)30.60 "Hg (Apr 5, 9:20 AM)
Low34 °F (Apr 13, 6:20 AM)32% (Apr 11, 2:20 PM)29.65 "Hg (Apr 11, 5:50 AM)
Average51 °F68%30.24 "Hg
* Reported Apr 4 12:20 PM — Apr 19 12:20 PM, Middlesbrough, Weather by CustomWeather, © 2015

Note: Actual official high and low records may vary slightly from our data, if they occured in-between our weather recording intervals... More about our weather records

Advertising

Middlesbrough weather history for previous 24 hours

 ConditionsComfort  
Time TempWeatherWind HumidityBarometerVisibility
12:20 PM
Sun, Apr 19
48 °FBroken clouds.20 mph71%30.33 "HgN/A
11:50 AM48 °FPartly sunny.20 mph76%30.36 "HgN/A
11:20 AM46 °FBroken clouds.22 mph76%30.33 "HgN/A
10:50 AM46 °FPartly sunny.18 mph82%30.33 "HgN/A
10:20 AM46 °FSprinkles. Broken clouds.17 mph76%30.33 "Hg5 mi
9:50 AM46 °FBroken clouds.14 mph76%30.33 "HgN/A
9:20 AM46 °FPartly sunny.14 mph76%30.33 "HgN/A
8:50 AM45 °FPartly sunny.14 mph76%30.36 "HgN/A
8:20 AM43 °FPartly sunny.13 mph76%30.36 "HgN/A
7:50 AM43 °FOvercast.12 mph76%30.36 "HgN/A
7:20 AM41 °FPartly sunny.12 mph81%30.36 "HgN/A
6:50 AM41 °FPassing clouds.12 mph81%30.36 "HgN/A
6:20 AM41 °FPassing clouds.12 mph81%30.36 "HgN/A
5:50 AM41 °FOvercast.12 mph81%30.36 "HgN/A
9:50 PM
Sat, Apr 18
45 °FPassing clouds.6 mph66%30.48 "HgN/A
9:20 PM45 °FPassing clouds.6 mph66%30.48 "HgN/A
8:50 PM45 °FPassing clouds.10 mph66%30.48 "HgN/A
8:20 PM45 °FPartly sunny.10 mph66%30.48 "HgN/A
7:50 PM45 °FPartly sunny.12 mph66%30.48 "HgN/A
7:20 PM46 °FPartly sunny.12 mph62%30.48 "HgN/A
6:50 PM46 °FPartly sunny.12 mph66%30.48 "HgN/A
6:20 PM46 °FPartly sunny.13 mph66%30.48 "HgN/A
5:50 PM46 °FPartly sunny.13 mph66%30.48 "HgN/A
5:20 PM48 °FPartly sunny.13 mph62%30.48 "HgN/A
4:50 PM48 °FPartly sunny.13 mph66%30.48 "HgN/A
4:20 PM48 °FPartly sunny.10 mph66%30.48 "HgN/A
3:50 PM50 °FScattered clouds.13 mph62%30.48 "HgN/A
3:20 PM50 °FScattered clouds.12 mph62%30.48 "HgN/A
2:50 PM50 °FPartly sunny.13 mph67%30.51 "HgN/A
2:20 PM50 °FPartly sunny.13 mph62%30.51 "HgN/A
1:50 PM50 °FPartly sunny.12 mph62%30.51 "HgN/A
1:20 PM50 °FPartly sunny.13 mph58%30.51 "HgN/A
Weather by CustomWeather, © 2015

See weather overviewHow to use our weather pages